Vertical_Velocity
3 -0 0 -1 -1 -2 -0 -2 -0 1 2 0 1 -0 -2 1 -5 -3 1 3 1 -0 0 2 0 -0 2 -0 0 0 -1 -1 -1 -1 0 1 -0 -0 -3 -0 -2 -1 0 -0 -1 -0 0 -1 -1
2 -0 0 -1 -3 1 -2 -1 -0 -1 -0 -1 1 1 1 -1 0 0 -0 -1 2 -1 -1 -2 2 -2 2 0 1 0 1 -2 0 -1 2 -2 -0 -0 1 -1 -1 -1 0 -2 1 1 -2 -0 0
3 2 -3 -2 -1 -2 -2 -1 -1 -0 1 1 -0 1 -0 1 -0 3 2 -1 1 1 0 1 1 -0 0 1 1 0 1 -1 1 -0 -0 -0 -0 1 -0 -1 -1 -1 0 -0 -1 -1 -0 0 -1
0 1 -1 -1 -2 -3 -2 -0 -1 1 1 0 -0 0 0 0 2 3 4 2 4 0 1 0 1 -0 1 -2 -1 3 2 0 1 0 -1 0 -1 1 -1 -0 -1 -1 -0 -1 -0 -0 -0 -1 -0
2 1 0 0 -2 -1 -0 -1 -0 0 -0 -0 -0 1 -0 -0 0 1 -0 5 6 2 3 3 1 -0 -1 -0 0 0 1 2 1 -1 1 -0 -0 -0 0 -1 -1 -0 -1 -0 -1 0 1 1 -1
1 0 3 -1 -1 -0 0 -1 -1 -0 0 -1 -2 -0 2 2 -1 2 6 1 -1 2 -1 3 1 4 -1 -1 0 0 0 -0 1 1 -1 1 2 -1 -0 0 -0 -1 -1 -1 0 0 1 -0 -0
1 0 -3 -2 -3 1 -2 1 -1 -1 0 0 -1 -1 1 4 2 3 2 5 1 3 -1 0 2 1 3 -1 -1 0 -0 -1 0 -1 2 1 1 -1 1 0 -0 -0 -0 0 1 1 1 0 -0
-1 0 3 -1 -3 -11 -2 1 -1 -2 -1 2 -1 0 1 -4 5 3 3 5 4 2 5 1 1 3 2 1 -2 0 1 -1 0 1 -0 0 -0 1 2 0 1 1 -0 0 -0 1 0 -0 -0
-1 2 -0 -7 0 -7 0 2 4 2 -2 2 0 -2 1 2 3 2 -0 1 5 3 1 3 0 2 3 -1 1 1 3 -1 -1 -1 -0 0 -1 -1 -0 -1 -1 -2 -1 0 1 0 1 -1 0
1 4 -5 -2 -2 -1 -1 -1 -2 -0 0 1 4 2 -2 -4 5 1 3 -0 4 2 5 4 2 2 3 2 -0 0 1 -0 -1 -0 0 -0 -0 -1 -0 0 -0 -1 -0 -0 -1 -1 1 0 -1
-2 -3 -3 0 -2 -2 -1 2 1 -2 1 -4 -7 2 -7 -1 2 3 7 1 -2 4 2 3 4 1 3 3 1 -1 -1 -0 -1 -1 -2 -0 -0 0 -0 0 -1 -0 1 0 1 1 1 2 0
3 -0 -1 -0 0 2 -1 1 1 1 -6 2 5 6 -7 -3 -7 -5 -2 2 -3 -0 -2 0 2 2 -0 3 2 1 0 -2 -1 -1 -2 -1 -1 -0 0 0 0 1 0 0 1 2 1 1 0
2 -1 -1 -3 -1 1 2 -1 -3 -2 2 -1 -1 6 -3 -1 1 2 -2 -1 5 -1 -1 -1 -2 0 1 1 1 2 1 1 1 0 1 -1 -1 1 0 1 1 0 0 0 1 1 1 0 -1
-4 -0 -1 0 -1 0 -0 -0 1 -1 2 0 -4 4 3 -3 -6 -2 -1 -0 -1 3 -1 1 -1 -3 1 1 0 0 0 2 1 0 1 2 0 -1 0 -0 0 0 1 1 -0 0 -1 -1 -1
1 5 0 0 -0 -1 -1 3 -1 0 1 -0 -1 5 1 -4 -7 -3 -1 -1 1 5 10 1 4 5 2 2 3 -0 1 -1 -1 1 -0 -0 1 0 -1 0 1 1 1 0 -0 1 -1 -1 -0
0 3 2 -2 1 -1 5 -5 -1 0 1 -0 2 8 1 -4 -9 -4 -1 -3 3 5 1 3 4 3 3 -1 0 2 1 0 -0 -1 -0 0 -0 1 1 -0 1 2 -0 -0 0 0 -0 -1 0
5 -1 2 3 -0 -0 -2 -1 -2 0 0 -2 0 8 -2 1 -12 -2 -0 0 2 -1 4 -2 -0 1 3 2 -0 0 -0 0 1 1 -0 1 -0 0 1 1 2 1 0 0 -0 -1 -1 0 -1
-4 2 3 -2 0 1 1 -1 -1 -1 2 -3 -2 1 0 -9 -11 0 -0 -1 6 -7 0 8 2 5 8 9 7 1 1 1 0 -0 -1 0 -0 -1 -1 1 -0 -0 0 -1 -0 -1 -1 1 1
-3 -1 -2 1 1 -1 -2 -1 -2 -1 1 0 -1 0 4 -5 2 -1 -3 3 4 -1 4 9 6 -6 -5 3 -2 -0 -4 -4 -4 -1 -1 -0 -0 -0 2 -1 1 0 -1 2 2 0 -0 1 2
1 -1 2 2 1 0 1 -3 -2 0 -4 -3 -3 -1 -1 -0 2 -3 3 5 1 3 -1 -3 -11 14 -10 5 8 5 6 2 1 4 3 0 -1 -1 -1 0 0 1 2 1 2 1 1 -1 1
0 -4 0 -6 1 -0 -1 -2 0 -1 1 2 -0 1 -1 -6 -7 0 -4 7 2 3 3 1 1 4 0 4 5 3 -3 -0 4 -1 3 1 4 4 2 2 2 2 -0 2 3 4 1 -1 -1
1 -3 -2 -0 1 -1 -0 -4 -1 -1 -0 1 -1 -1 -5 -1 6 -2 -4 1 -4 3 1 1 2 1 3 2 2 2 4 2 1 2 2 1 1 2 -0 0 1 1 2 -1 5 4 1 2 -2
-5 -2 -2 -1 -1 -2 -1 1 -8 0 1 -2 -3 -4 -5 -9 -8 -14 6 -3 -3 5 1 0 1 -1 -0 3 1 -3 -2 0 -0 -0 0 0 1 0 -0 0 2 1 1 1 -0 0 0 2 2
-1 -1 -1 -0 -1 1 -3 -1 -5 -2 -6 -1 -1 -3 -3 -5 -4 -6 -2 0 -4 -6 -6 2 -1 -4 0 1 1 2 2 0 -0 1 -1 -1 -0 -0 1 0 -1 1 0 -1 1 1 -1 1 1
9 4 3 4 2 -5 -0 3 -8 -2 -2 -2 -3 -4 -5 -1 -1 2 -12 5 -3 0 -2 1 3 -1 1 4 2 3 1 -0 -2 -1 -1 -2 -1 -0 -0 0 0 1 1 0 1 1 1 -0 0
-2 -5 -6 -5 -1 -1 -0 -2 -15 -3 -1 0 1 1 2 2 0 -1 2 -3 -2 -5 -3 -1 0 4 0 -1 -0 1 0 1 0 0 -0 0 -0 -0 1 1 1 -0 1 2 3 2 2 -1 0
3 -3 -3 -5 -0 -2 -3 -4 -5 -0 -2 -1 -3 -0 -0 1 3 1 -0 4 5 3 1 1 1 -1 3 -1 -2 -2 -1 -1 -1 -2 -1 1 -1 -2 -2 -1 0 2 1 2 3 1 1 3 2
5 -2 -5 -3 -3 0 0 -1 -4 -1 -1 -1 -1 -2 -1 -1 -0 -0 3 7 5 2 3 2 1 -1 -1 1 0 -0 -2 -1 -2 -1 -1 -0 -0 -0 -1 -0 -1 -2 -3 -5 -2 13 2 4 4
1 1 -2 -5 -1 -3 -1 -4 -3 -1 -0 -1 -1 -1 -1 1 -2 -0 3 4 6 4 3 2 4 1 -2 -3 -2 -1 -2 -1 -0 1 -1 -0 0 1 1 1 -1 -0 1 2 1 3 2 2 -0
-0 -1 -2 -6 1 0 -2 -8 -1 -1 -1 1 -1 0 -1 1 2 2 -1 -3 -3 -2 1 2 0 2 4 1 -2 -2 -0 -1 -1 -0 0 1 -1 -2 2 1 0 -0 -0 -2 -1 1 -1 1 -2
Height
1522 1524 1526 1528 1536 1536 1538 1533 1531 1529 1529 1527 1528 1529 1528 1527 1526 1532 1525 1529 1533 1538 1542 1546 1551 1555 1558 1560 1563 1565 1566 1567 1569 1571 1571 1572 1572 1572 1573 1573 1575 1576 1576 1577 1578 1579 1580 1581 1582
1520 1523 1526 1527 1534 1537 1533 1529 1529 1527 1526 1525 1525 1526 1528 1525 1525 1524 1525 1529 1534 1538 1542 1547 1551 1555 1559 1561 1563 1565 1567 1568 1570 1571 1572 1574 1574 1575 1575 1576 1577 1578 1578 1579 1579 1580 1582 1583 1583
1519 1521 1524 1526 1533 1530 1527 1525 1525 1526 1524 1524 1524 1525 1525 1526 1525 1524 1524 1528 1533 1539 1542 1547 1551 1555 1559 1562 1564 1566 1567 1569 1571 1572 1573 1575 1576 1576 1577 1579 1579 1580 1580 1581 1582 1582 1584 1584 1585
1518 1522 1524 1526 1527 1526 1521 1520 1521 1523 1524 1524 1524 1525 1526 1525 1525 1526 1526 1529 1533 1539 1543 1548 1552 1555 1559 1563 1565 1567 1569 1570 1571 1572 1573 1575 1576 1578 1579 1581 1581 1582 1583 1583 1584 1585 1586 1586 1587
1516 1518 1522 1527 1524 1521 1521 1520 1521 1522 1524 1524 1523 1525 1526 1526 1526 1526 1530 1531 1535 1539 1545 1548 1552 1556 1560 1564 1566 1568 1570 1571 1571 1572 1573 1575 1577 1579 1581 1582 1583 1584 1585 1585 1586 1587 1588 1588 1589
1512 1514 1517 1518 1517 1519 1518 1518 1520 1522 1523 1523 1524 1525 1527 1527 1528 1529 1531 1534 1538 1540 1545 1549 1553 1557 1560 1564 1567 1569 1570 1571 1572 1573 1573 1575 1577 1579 1581 1583 1584 1585 1586 1587 1587 1588 1589 1590 1591
1506 1509 1512 1509 1514 1519 1514 1517 1519 1521 1523 1524 1525 1526 1530 1529 1529 1531 1534 1536 1540 1544 1546 1550 1553 1557 1560 1563 1567 1569 1571 1572 1573 1573 1575 1576 1577 1579 1582 1584 1585 1586 1587 1588 1588 1589 1590 1591 1592
1509 1508 1510 1511 1512 1510 1512 1514 1517 1520 1524 1524 1525 1528 1530 1530 1532 1532 1535 1538 1541 1544 1547 1550 1553 1556 1559 1562 1566 1569 1570 1572 1574 1575 1577 1578 1579 1579 1581 1584 1585 1587 1588 1588 1589 1590 1590 1591 1593
1508 1509 1503 1502 1509 1505 1511 1513 1517 1520 1522 1524 1525 1527 1528 1526 1530 1533 1536 1539 1541 1544 1547 1549 1553 1556 1558 1561 1565 1568 1570 1572 1573 1575 1577 1578 1580 1581 1583 1584 1585 1587 1589 1590 1591 1592 1592 1593 1594
1505 1502 1498 1502 1506 1506 1509 1512 1516 1520 1522 1524 1525 1527 1527 1527 1531 1534 1536 1539 1542 1544 1547 1550 1552 1556 1558 1560 1564 1567 1569 1571 1573 1575 1577 1578 1580 1581 1583 1585 1586 1587 1589 1590 1590 1591 1592 1592 1593
1501 1498 1498 1502 1503 1504 1508 1511 1514 1516 1520 1519 1522 1525 1528 1530 1531 1533 1536 1539 1542 1544 1547 1549 1552 1555 1558 1559 1562 1565 1568 1570 1573 1575 1577 1578 1580 1581 1582 1584 1585 1586 1588 1589 1591 1591 1592 1592 1593
1500 1495 1498 1501 1503 1504 1507 1508 1510 1512 1515 1517 1520 1521 1526 1531 1533 1534 1534 1538 1541 1544 1546 1549 1552 1554 1557 1560 1562 1564 1567 1569 1572 1574 1576 1578 1579 1581 1582 1584 1585 1586 1587 1588 1590 1590 1591 1592 1592
1498 1495 1498 1502 1504 1504 1504 1505 1508 1509 1511 1515 1517 1520 1522 1528 1531 1530 1533 1536 1539 1541 1544 1548 1550 1553 1555 1558 1561 1563 1566 1569 1571 1573 1575 1577 1578 1580 1581 1583 1584 1585 1586 1587 1588 1589 1590 1591 1591
1495 1494 1496 1501 1503 1503 1503 1505 1506 1506 1509 1512 1515 1518 1519 1524 1527 1527 1530 1535 1538 1540 1543 1546 1549 1551 1554 1556 1559 1562 1565 1568 1570 1572 1574 1575 1577 1578 1580 1581 1582 1584 1585 1586 1587 1588 1588 1589 1590
1493 1496 1498 1501 1501 1502 1503 1506 1503 1505 1506 1508 1510 1515 1515 1522 1525 1526 1528 1532 1536 1539 1541 1545 1548 1549 1552 1555 1558 1560 1563 1566 1568 1570 1572 1573 1575 1576 1578 1579 1581 1582 1583 1584 1585 1586 1587 1587 1588
1491 1495 1499 1496 1498 1499 1501 1499 1501 1503 1505 1506 1508 1507 1511 1519 1522 1524 1526 1530 1534 1538 1540 1543 1546 1547 1549 1552 1555 1558 1561 1563 1566 1568 1570 1571 1573 1575 1576 1577 1579 1581 1581 1582 1583 1584 1585 1586 1586
1488 1489 1494 1497 1494 1497 1500 1502 1499 1501 1503 1503 1504 1504 1507 1514 1521 1522 1523 1527 1531 1535 1537 1539 1544 1546 1547 1549 1552 1556 1559 1561 1564 1566 1568 1569 1571 1573 1574 1576 1578 1578 1579 1580 1581 1582 1583 1584 1584
1481 1486 1492 1492 1494 1497 1502 1502 1499 1498 1501 1501 1502 1503 1507 1511 1519 1519 1520 1523 1527 1531 1534 1537 1540 1543 1546 1548 1551 1553 1555 1558 1561 1563 1565 1567 1569 1571 1572 1574 1575 1576 1577 1577 1579 1580 1580 1580 1581
1477 1485 1487 1491 1492 1495 1498 1501 1498 1497 1500 1500 1500 1501 1501 1507 1514 1515 1516 1520 1524 1528 1531 1534 1539 1542 1544 1546 1546 1549 1551 1555 1557 1560 1562 1564 1566 1568 1569 1571 1572 1573 1573 1575 1576 1576 1577 1577 1577
1477 1483 1487 1491 1493 1496 1499 1499 1497 1496 1496 1496 1497 1497 1500 1504 1506 1510 1514 1519 1521 1525 1528 1532 1537 1539 1539 1540 1544 1546 1549 1551 1554 1557 1558 1560 1562 1563 1564 1565 1567 1569 1569 1571 1572 1572 1572 1573 1574
1480 1481 1488 1488 1495 1499 1499 1500 1496 1493 1493 1495 1495 1495 1498 1500 1503 1506 1511 1514 1518 1521 1526 1529 1532 1535 1536 1539 1541 1542 1543 1546 1549 1551 1553 1555 1557 1559 1560 1562 1563 1564 1565 1565 1566 1567 1567 1568 1568
1484 1480 1482 1489 1493 1494 1500 1499 1495 1489 1491 1491 1492 1494 1496 1498 1501 1504 1509 1511 1517 1520 1522 1525 1528 1530 1533 1537 1536 1538 1540 1543 1545 1547 1549 1551 1552 1553 1555 1556 1558 1559 1560 1560 1561 1562 1562 1562 1562
1482 1476 1481 1490 1497 1500 1503 1501 1488 1490 1487 1489 1489 1491 1493 1497 1500 1503 1505 1508 1512 1516 1519 1522 1524 1526 1528 1531 1532 1534 1536 1539 1540 1542 1544 1545 1547 1548 1549 1550 1552 1553 1554 1556 1556 1556 1556 1556 1556
1486 1479 1486 1493 1500 1503 1500 1498 1488 1487 1482 1480 1481 1482 1486 1491 1495 1499 1503 1505 1509 1511 1514 1517 1519 1522 1524 1526 1528 1530 1532 1535 1536 1537 1539 1540 1542 1543 1544 1544 1546 1547 1548 1549 1550 1550 1550 1550 1551
1489 1476 1488 1499 1499 1499 1502 1502 1481 1479 1477 1476 1475 1476 1479 1483 1488 1492 1497 1498 1505 1508 1510 1513 1513 1517 1521 1522 1524 1526 1528 1530 1531 1532 1533 1535 1536 1537 1537 1538 1539 1540 1541 1543 1543 1543 1544 1545 1546
1470 1473 1480 1488 1489 1494 1504 1495 1476 1468 1469 1471 1472 1475 1475 1477 1481 1485 1490 1496 1502 1503 1506 1509 1511 1514 1516 1518 1520 1522 1523 1524 1525 1526 1527 1528 1528 1530 1531 1531 1532 1533 1535 1536 1537 1538 1539 1540 1541
1474 1482 1479 1492 1506 1492 1491 1489 1470 1466 1466 1470 1471 1471 1472 1474 1476 1479 1484 1491 1494 1497 1501 1506 1508 1511 1512 1513 1516 1517 1518 1519 1519 1520 1521 1522 1522 1523 1525 1525 1526 1527 1528 1530 1532 1533 1535 1535 1536
1478 1477 1479 1490 1499 1488 1491 1489 1471 1467 1469 1469 1469 1467 1467 1468 1471 1474 1478 1484 1489 1494 1499 1501 1504 1506 1508 1509 1511 1513 1514 1515 1516 1517 1517 1517 1518 1518 1519 1520 1520 1521 1522 1524 1526 1528 1529 1530 1531
1475 1475 1479 1482 1490 1485 1487 1477 1473 1470 1471 1469 1466 1464 1464 1465 1467 1471 1476 1483 1488 1493 1496 1500 1502 1503 1504 1506 1508 1509 1511 1513 1513 1514 1514 1514 1515 1515 1516 1516 1516 1518 1520 1521 1522 1523 1525 1525 1526
1474 1474 1473 1482 1491 1510 1504 1477 1468 1470 1470 1468 1464 1462 1463 1465 1467 1471 1477 1484 1488 1492 1496 1498 1500 1503 1502 1503 1505 1506 1507 1508 1510 1510 1511 1511 1511 1512 1512 1512 1512 1514 1515 1517 1518 1518 1520 1520 1520